Weather in Kulgeshi

Russia / Chuvash Republic     55°45′32″N   47°57′22″E
temp.,
°C
wind,
m/s
gust,
m/s
humid.,
%
clouds,
%
prec.,
mm/h
press.,
hPa
HPBL,
m
15 may, sat
sat1500:00+17s118287 0.0 101811
03:00+17se2285100 0.0 101722
06:00+18se3882100 0.0 1017218
09:00+23s61153100 0.0 1017550
12:00+27s71343100 0.0 10171184
15:00+27ssw7114246 0.0 10161150
18:00+23s5125720 0.0 1016265
21:00+18s413657 0.0 1016215
16 may, sun
sun1600:00+17s4106625 0.0 1016150
03:00+15s376559 0.0 101698
06:00+17s376975 0.0 1016195
09:00+22ssw475361 0.0 1016505
12:00+26ssw694131 0.0 10161150
15:00+27sw51044100 0.0 10151817
18:00+23sw3863100 0.0 1015229
21:00+19sw336765 0.0 101640
17 may, mon
mon1700:00+17sw237894 0.0 101726
03:00+16wsw2279100 0.0 101717
06:00+18sw1272100 0.0 101883
09:00+23ssw125587 0.0 1018441
12:00+27ssw244437 0.0 10181088
15:00+29sw353758 0.0 10171837
18:00+25ssw345612 0.0 101779
21:00+20ssw33542 0.0 101720
18 may, tue
tue1800:00+17s33593 0.0 101829
03:00+16s22635 0.0 101713
06:00+19sse24632 0.0 1017114
09:00+25sse45497 0.0 1017486
12:00+28s463248 0.0 10161804
15:00+28sse453476 0.0 10161666
18:00+24se3456100 0.0 101556
21:00+20se3359100 0.0 101533
19 may, wed
wed1900:00+19se3354100 0.0 101524
03:00+17se33566 0.0 101534
06:00+19se3764100 0.0 1014156
09:00+25se594718 0.0 1013397
12:00+28se712395 0.0 10131742
15:00+28se8124052 0.0 10112093
18:00+24se7164913 0.0 1008488
21:00+18sse51874100 1.6 1011708